Location: Newark
(30.1000°N, 109.4667°E)
Time: 01:31:35
(UTC+00:00)

Courier 1B - All Passes

Search period start: 29 February 2020 00:00
Search period end: 10 March 2020 00:00
Orbit: 962 x 1209 km, 28.3° (Epoch: 28 February)

Date Brightness Start Highest point End Pass type
(mag) Time Alt. Az. Time Alt. Az. Time Alt. Az.
29 Feb - 03:10:04 10° SSW 03:16:15 27° SSE 03:22:34 10° E daylight
29 Feb - 05:02:32 10° WSW 05:10:09 58° SSE 05:17:48 10° E daylight
29 Feb - 06:56:37 10° W 07:04:30 79° S 07:12:13 10° E daylight
29 Feb - 08:51:09 10° W 08:58:53 66° SSW 09:06:16 10° ESE daylight
29 Feb - 10:46:08 10° W 10:52:48 34° SSW 10:59:07 10° SE daylight
01 Mar - 02:17:16 10° SSW 02:22:30 20° SSE 02:27:51 10° ESE daylight
01 Mar - 04:08:52 10° SW 04:16:14 49° SSE 04:23:45 10° E daylight
01 Mar - 06:02:38 10° WSW 06:10:29 77° S 06:18:17 10° E daylight
01 Mar - 07:57:05 10° W 08:04:55 73° S 08:12:31 10° ESE daylight
01 Mar - 09:51:51 10° W 09:59:01 42° SSW 10:05:52 10° SE daylight
01 Mar - 11:48:34 10° WSW 11:52:32 15° SSW 11:56:26 10° S visible
02 Mar - 01:25:06 10° S 01:28:47 14° SSE 01:32:32 10° ESE daylight
02 Mar - 03:15:23 10° SW 03:22:21 40° SSE 03:29:34 10° E daylight
02 Mar - 05:08:44 10° WSW 05:16:28 72° S 05:24:18 10° E daylight
02 Mar - 07:03:03 10° W 07:10:56 78° S 07:18:39 10° E daylight
02 Mar - 08:57:39 10° W 09:05:11 52° SSW 09:12:24 10° SE daylight
02 Mar - 10:53:24 10° WSW 10:58:52 21° SSW 11:04:09 10° SSE visible
03 Mar - 02:22:07 10° SSW 02:28:33 32° SSE 02:35:15 10° E daylight
03 Mar - 04:14:56 10° WSW 04:22:30 64° SSE 04:30:17 10° E daylight
03 Mar - 06:09:04 10° W 06:16:54 80° S 06:24:44 10° E daylight
03 Mar - 08:03:33 10° W 08:11:16 61° SSW 08:18:47 10° ESE daylight
03 Mar - 09:58:44 10° W 10:05:09 28° SSW 10:11:19 10° SSE daylight
04 Mar - 01:29:07 10° SSW 01:34:48 24° SSE 01:40:44 10° E daylight
04 Mar - 03:21:15 10° WSW 03:28:35 56° SSE 03:36:12 10° E daylight
04 Mar - 05:15:07 10° W 05:22:53 79° S 05:30:46 10° E daylight
04 Mar - 07:09:30 10° W 07:17:19 68° SSW 07:25:00 10° ESE daylight
04 Mar - 09:04:21 10° W 09:11:21 36° SSW 09:18:09 10° SE daylight
04 Mar - 11:02:20 10° SW 11:04:53 12° SW 11:07:25 10° SSW visible
05 Mar - 00:36:33 10° S 00:41:08 18° SSE 00:45:50 10° ESE daylight
05 Mar - 02:27:43 10° SW 02:34:42 46° SSE 02:42:03 10° E daylight
05 Mar - 04:21:15 10° WSW 04:28:52 76° S 04:36:44 10° E daylight
05 Mar - 06:15:31 10° W 06:23:19 75° S 06:31:09 10° ESE daylight
05 Mar - 08:10:07 10° W 08:17:30 45° SSW 08:24:44 10° SE daylight
05 Mar - 10:06:25 10° WSW 10:11:11 17° SSW 10:15:51 10° S daylight
05 Mar - 23:44:54 10° SSE 23:47:29 12° SE 23:50:06 10° SE daylight
06 Mar - 01:34:22 10° SW 01:40:55 37° SSE 01:47:48 10° E daylight
06 Mar - 03:27:27 10° WSW 03:34:54 70° S 03:42:40 10° E daylight
06 Mar - 05:21:35 10° W 05:29:18 78° S 05:37:11 10° E daylight
06 Mar - 07:16:01 10° W 07:23:37 54° SSW 07:31:09 10° ESE daylight
06 Mar - 09:11:30 10° W 09:17:27 24° SSW 09:23:16 10° SSE daylight
07 Mar - 00:41:15 10° SSW 00:47:11 29° SSE 00:53:26 10° E daylight
07 Mar - 02:33:46 10° WSW 02:40:58 62° SSE 02:48:35 10° E daylight
07 Mar - 04:27:41 10° W 04:35:17 80° S 04:43:09 10° E daylight
07 Mar - 06:22:01 10° W 06:29:40 62° SSW 06:37:24 10° ESE daylight
07 Mar - 08:16:59 10° W 08:23:39 31° SSW 08:30:14 10° SSE daylight
07 Mar - 23:48:26 10° SSW 23:53:31 22° SSE 23:58:50 10° ESE daylight
08 Mar - 01:40:13 10° WSW 01:47:07 53° SSE 01:54:27 10° E daylight
08 Mar - 03:33:52 10° W 03:41:18 78° S 03:49:07 10° E daylight
08 Mar - 05:28:04 10° W 05:35:42 70° S 05:43:31 10° ESE daylight
08 Mar - 07:22:42 10° W 07:29:49 39° SSW 07:36:55 10° SE daylight
08 Mar - 09:19:55 10° WSW 09:23:29 14° SSW 09:27:01 10° S daylight
08 Mar - 22:56:08 10° S 22:59:55 15° SSE 23:03:47 10° ESE daylight
09 Mar - 00:46:49 10° SW 00:53:20 43° SSE 01:00:17 10° E daylight
09 Mar - 02:40:06 10° WSW 02:47:21 74° S 02:55:01 10° E daylight
09 Mar - 04:34:11 10° W 04:41:43 75° S 04:49:33 10° ESE daylight
09 Mar - 06:28:35 10° W 06:35:56 47° SSW 06:43:22 10° SE daylight
09 Mar - 08:24:31 10° WSW 08:29:43 19° SSW 08:34:53 10° SSE daylight
